Tracking 35331 objects as of 15-Sep-2026
HD Live streaming from Space Station
objects crossing your sky now

SPACEBEE-156


SPACEBEE-156 is no longer on orbit


NORAD ID: 55099
Int'l Code: 2023-001CU
Launch date: January 3, 2023
Source: United States (US)
Launch site: AIR FORCE EASTERN TEST RANGE (AFETR)
Decay date: 2024-09-15
Your satellite tracking list
Your tracking list is empty




NASA's NSSDC Master Catalog

Two Line Element Set (TLE):
1 55099U 23001CU  24259.59669737  .17550083  25985-5  31514-3 0  9998
2 55099  97.3841 331.2462 0012390 252.5470 107.4479 16.46865275 95267
Source of the keplerian elements: AFSPC